User: anonymous   Login
Location: *
(13.2257°S, 48.7193°W)
Time: 09:53:52
(UTC+00:00)
Language:

CZ-4C R/B - Orbit

View from above orbital plane
View from above orbital plane
View from above satellite
View from above satellite

Ground track
Ground track

The orbit is defined by the following mean orbital elements,

1 36416U          26106.65712904 +.00000000 +00000-0 +73363-4 0 00008
2 36416  63.3861 211.0944 0693886   2.9101 357.5663 13.73047163    03
Epoch (UTC): 16 April 2026 15:46:15
Eccentricity: 0.0693886
inclination: 63.3861°
perigee height: 477 km
apogee height: 1500 km
right ascension of ascending node: 211.0944°
argument of perigee: 2.9101°
revolutions per day: 13.73047163
mean anomaly at epoch: 357.5663°

The dashed part of the orbit path shows where the satellite is in the earth's shadow,  

DLR